Location: Sihaung
(22.8641°N, 94.0549°E)
Time: 01:50:02
(UTC+00:00)

Nadezhda 3 Rocket - Pass Details

Date: 03 March 2021
Orbit: 957 x 999 km, 82.9° (Epoch: 12 April)

Event Time Altitude Azimuth Distance (km) Brightness Sun altitude
Rises 12:20:11 0° 5° (N) 3,717 7.0 -8.2°
Reaches altitude 10° 12:22:52 10° 12° (NNE) 2,767 6.2 -8.8°
Maximum altitude 12:28:52 43° 83° (E) 1,364 4.3 -10.2°
Drops below altitude 10° 12:34:50 10° 153° (SSE) 2,751 6.1 -11.6°
Sets 12:37:28 0° 160° (SSE) 3,694 6.8 -12.2°
